Погода Покровская

Погода Покровская : погода сейчас, прогноз погоды и архив. Всё, что Вы хотите узнать о погоде Покровская!

Хотите узнать прогноз погоды Покровская? Тогда Вам сюда: Погода Покровская

Поиск расширенной информации на нашем сайте:

Другие новости

Новости СМИ2

Главная страница сайта

Новости сайта

03.07.2017

Напоминаем, что на нашем специализированном сайте Метеоцентр.Азия вы можете получить высокодетализированные автоматические прогнозы погоды по пунктам России, СНГ и мира в авиационном формате (включающие направление и скорость ветра, видимость, явления погоды, количество и форму облачности, нижнюю и верхнюю границу облачности).


Погода Покровская - сегодня

Время (UTC), дата Ветер
(°,м/с) 
Видим.   Явления Облачность Т
(°С)
Тd
(°С)
f(%) Тe
(°С)
Pmin
(гПа)
dP
(гПа)
Po
(мм)
O2
(г/м3)
Тmin Tmax R s Состояние
почвы
21 21.11.17 040 (СВ) 10 км  слаб. снег  10/0 средняя 
[As op]
-32.3 -34 85 -36  1010.1  0.1  745  342           
00 22.11.17 020 (С) 10 км  слаб. снег  10/0 средняя 
[As op]
-32 -33.4 87 -38  1010.8  0.7  745  342  -33.4    0.4  12  равномерный
сухой снег
100% 
03 22.11.17 040 (СВ) 10 км  слаб. снег  10/0 средняя 
[As op]
-31.6 -35.2 70 -37  1011.2  0.4  746  342           
06 22.11.17 040 (СВ) 10 км  слаб. снег  10/0 средняя 
[Ac As]
-32 -34.4 79 -38  1012.6  1.4  747  343           
09 22.11.17 040 (СВ) 10 км  слаб. снег  10/0 средняя 
[Ac As]
-31.7 -34.7 75 -38  1014.3  1.7  748  342           
12 22.11.17 030 (СВ) 10 км  слаб. снег  10/0 средняя 
[As op]
-31.2 -33 84 -35  1016.5  2.2  749  343    -31.2  0.4     
15 22.11.17 тихо ()   10 км  слаб. снег  10/0 средняя 
[As op]
-31.4 -33 86 -31  1018.7  1.6  751  344           
18 22.11.17 250 (З) 10 км  слаб. снег  10/0 средняя 
[As op]
-33 -34.2 89 -34  1019.7  1.4  752  346           
21 22.11.17 260 (З) 10 км  слаб. снег  10/0 средняя 
[As op]
-35.5 -37.1 85 -40  1020.4  0.5  752  350           
00 23.11.17 250 (З) 10 км  {снег}  3/0 верхняя 
[Ci fib]
-38.7 -40.8 81 -43  1021  0.4  752  355  -38.7    0.0  13  равномерный
сухой снег
100% 
03 23.11.17 тихо ()   10 км    ясно 
-35.7 -37.5 83 -36  1021.8  753  351  -39.1         
06 23.11.17 тихо ()   20000 м    3/0 верхняя 
[Ci fib]
-35.1 -36.8 84 -35  1022.1  0.3  753  350           
09 23.11.17 250 (З) 10 км    ясно 
-39.2 -40.6 87 -40  1023.7  1.3  754  357           
12 23.11.17 260 (З) 4000 м  дымка  ясно 
-41.4 -43.2 83 -43  1024.4  0.5  755  361    -34.5       
15 23.11.17 250 (З) 4000 м  дымка  ясно 
-43.2 -44.4 88 -45  1024.3  -0.2  755  363           
18 23.11.17 240 (ЮЗ) 4000 м  дымка  ясно 
-44 -46.4 77 -45  1024.3  755  365           
21 23.11.17 250 (З) 4000 м  дымка  ясно 
-43.7 -45.7 80 -45  1024.1  -0.2  754  364           
00 24.11.17 230 (ЮЗ) 0500 м  туман  ясно 
-44.1 -46.4 77 -45  1024  -0.1  754  365  -44.3      13  равномерный
сухой снег
100% 
03 24.11.17 250 (З) 0500 м  туман  ясно 
-40.4 -42.7 78 -42  1022.1  -1.6  753  358           
06 24.11.17 220 (ЮЗ) 10 км  {туман}  10/0 верхняя 
[Cs]
-35.3 -37.7 78 -36  1021  -0.8  753  350           
09 24.11.17 240 (ЮЗ) 10 км  слаб. снег  10/0 верхняя 
[Cs]
-31.5 -33.3 84 -35  1019  -1.6  751  344           
12 24.11.17 250 (З) 20000 м  {снег}  10/0 верхняя 
[Ci fib]
-33.6 -35.9 80 -38  1018.1  -1.1  751  347    -31.5  0.0     
15 24.11.17 230 (ЮЗ) 20000 м    ясно 
-33.6 -35.9 80 -40  1015.7  -2.4  749  346           
18 24.11.17 230 (ЮЗ) 20000 м    ясно 
-33.9 -36.2 79 -42  1013.2  -2.4  747  346           
21 24.11.17 230 (ЮЗ) 20000 м    ясно 
-34.4 -36.8 79 -42  1011.8  -1.4  746  346           
Время (UTC), дата Ветер
(°,м/с) 
Видим.   Явления Облачность Т
(°С)
Тd
(°С)
f(%) Тe
(°С)
Pmin
(гПа)
dP
(гПа)
Po
(мм)
O2
(г/м3)
Тmin Tmax R s Состояние
почвы

Для получения пояснительной информации подведите курсор к названию столбца.

ПОГОДА Покровская - архив

Всё, что Вы хотите узнать о погоде Покровская - удобно и подробно!

Выберите нужную дату (начиная с 1 января 2015* года) и нажмите кнопку "Найти".
Будут отображены архивные сводки погоды по пункту Покровская, начиная с указанной даты.


Отображать данные в формате CSV (для использования в таблицах Excel)


Внимание! Наш архив погоды предназначен исключительно для личного некоммерческого использования в познавательных целях. Если Вам необходимы официальные справки о состоянии погоды (для производственных, юридических, коммерческих и т.п. целей), обращайтесь в органы Росгидромета.

*Примечание: данная дата относится к архиву по метеостанциям СССР (Россия, СНГ, Балтия).
Архив по метеостанциям Зарубежной Европы и Азии (кроме Китая) хранится 10 дней, по другим регионам земного шара (Китай, Африка, Америка, Австралия, Океания) - 1 день.

Покровская - район местоположения метеостанции


Название, широта, долгота, высота метеостанции:
Покровская 61.5°ш. 129.2°д. 115 м над ур. моря [Российская Федерация]

Дополнительная информация

В oтличие oт бoльшинства пoгoдных сайтoв мы публикуем пoдрoбную метеoинфoрмацию в детальнoм прoфессиoнальнoм фoрмате.

Характеристики температуры и влажнoсти вoздуха измеряются на высoте 2 м в тени вдали oт зданий и деревьев.
Скoрoсть ветра измеряется на высoте 10 м (на урoвне рoста челoвека скoрoсть ветра ниже в 1.5-2 раза). Если метеoстанция нахoдится в гoрoде или в лесу, тo скoрoсть ветра занижена на 2-4 м/с пo сравнению с oткрытым местoм. Скoрoсть ветра над акватoриями крупных рек и oзёр, а также на вершинах хoлмoв на 2-5 м/с выше, чем в oбычных услoвиях.
Атмoсфернoе давление в разных тoчках местнoсти мoжет значительнo oтличаться oт давления на метеoстанции, в зависимoсти oт услoвий рельефа (при пoдъёме на 10 м давление пoнижается примернo на 1 мм рт.ст.).